www.pogodaiklimat.ru

Погода и климат >> Архив погоды >> Россия >> Ханты-Мансийский АО >> Корлики


ПОГОДА в Корликах

  • Прогноз погоды в Корликах
  • Монитор погоды в Корликах

АРХИВ ПОГОДЫ в Корликах

Время (UTC), дата Ветер
(напр.,м/с)
 
Видим.   Явления Облачность Т
(С)
Тd
(С)
f
(%)
Тe
(С)
Тes
(С)
Комфортность P
(гПа)
Po
(гПа)
Тmin
(С)
Tmax
(С)
R
(мм)
R24
(мм)
S
(см)
12 12.06 В 1 н/о н/о +11.6 +8.3 80 +11 +11 999.1 991.0
15 12.06 штиль 0 10 км 10/10 600 м
[Sc]
+11.0 +9.0 87 +10 +10 998.7 989.7 +11.6
18 12.06 В 1 10 км 10/10 600 м
[Sc]
+10.5 +9.7 95 +10 +10 996.3 987.3
21 12.06 ЮВ 1 10 км 10/10 600 м
[Sc]
+10.1 +9.5 96 +10 +10 993.1 984.2
00 13.06 Ю 1 10 км 10/10 600 м
[Sc]
+10.9 +10.2 95 +10 +10 991.4 982.5
03 13.06 Ю 3 10 км 10/3 600 м
[Cu Sc Ci sp]
+14.8 +10.6 76 +14 +18 989.7 980.9 +10.1
06 13.06 Ю 3 н/о н/о +18.4 +9.3 55 +19 +19 988.4 980.6
09 13.06 Ю 4
{10}
10 км 10/10 600 м
[Cb cap]
+18.9 +7.6 48 +19 +19 987.9 979.3
12 13.06 Ю 2
{12}
н/о н/о +13.1 +10.8 86 +12 +12 987.4 979.4
15 13.06 З 3
{10}
4000 м слаб. ливневой дождь 10/10 300 м
[Cb cap]
+8.8 +7.4 91 +6 +6 990.2 981.3 +20.3 3
18 13.06 З 4
{12}
10 км {ливн. осадки} 10/8 600 м
[Cb cap Ci sp]
+4.3 +0.6 77 0 0 992.8 984.6
21 13.06 З 2 н/о н/о -4.4 -16.4 39 -8 -8 1011.6 1002.9
00 14.06 Ю 2 10 км 8/4 600 м
[Cb cap Ac lent]
+5.1 +2.0 80 +3 +3 994.9 986.6
03 14.06 ЮЗ 4 4000 м слаб. ливневой дождь 10/10 300 м
[Cb cap]
+5.1 +3.2 88 +1 +1 996.1 986.9 +3.0 1
06 14.06 ЮЗ 3
{11}
н/о н/о +7.1 +0.5 63 +5 +5 998.0 989.7
09 14.06 Ю 4 10 км 8/8 600 м
[Cb cap]
+8.9 +0.4 55 +6 +8 1000.2 991.2
12 14.06 ЮЗ 4 н/о н/о +9.7 -3.2 40 +8 +8 1000.0 991.8
15 14.06 З 2 10 км 4/4 600 м
[Cu Sc]
+7.2 +0.5 62 +5 +6 1001.6 992.4 +10.6 0.0
18 14.06 Ю 1 10 км 10/10 600 м
[Sc]
+5.7 +2.1 78 +5 +5 1002.1 992.9
21 14.06 Ю 1 10 км {ливн. осадки} 8/0
[Ac lent]
+3.2 +1.8 91 +2 +2 1002.8 993.6
00 15.06 Ю 1 10 км {ливн. осадки} 4/0
[Ac trans]
+5.3 +3.2 86 +4 +6 1003.8 994.6
03 15.06 З 3 10 км 10/6 600 м
[Cb cap Ac trans Ci sp]
+8.2 -0.9 53 +6 +7 1005.1 996.0 +2.9 0.4
06 15.06 ЮЗ 4 н/о н/о +9.6 -1.0 48 +7 +7 1005.8 997.5
09 15.06 З 3 10 км 8/8 600 м
[Cu Sc]
+10.1 -0.7 47 +8 +10 1008.1 999.0
12 15.06 З 2 н/о н/о +9.7 +0.2 52 +9 +9 1008.3 1000.0
15 15.06 З 1 10 км 9/9 600 м
[Sc]
+8.9 +1.2 58 +9 +9 1008.7 1000.4 +11.5
18 15.06 В 1 10 км 3/3 600 м
[Sc]
+2.5 +1.4 92 +1 +1 1010.2 1000.9
21 15.06 ЮВ 1 10 км 10/10 600 м
[Sc]
+6.2 +1.8 73 +5 +5 1009.6 1000.3
00 16.06 В 1 10 км 10/3 600 м
[Cu Sc Ci fib]
+8.1 +2.8 69 +8 +9 1008.4 999.3
03 16.06 Ю 2 10 км 10/0
[Ac trans Ci fib]
+12.4 -1.3 39 +12 +16 1007.4 998.3 +2.4
06 16.06 В 2 н/о н/о +12.7 +0.6 43 +12 +12 1005.5 997.3
09 16.06 С 1 10 км 10/10 600 м
[Cb cap]
+13.7 -1.2 36 +14 +14 1005.2 996.2
12 16.06 ЮВ 2 н/о н/о +14.5 +0.7 39 +14 +14 1003.8 995.7
15 16.06 штиль 0 10 км 10/3 600 м
[Cb cap Ac trans Ci sp]
+11.4 +4.3 62 +11 +11 1004.8 995.7 +15.0
18 16.06 штиль 0 10 км 10/0
[Ac As]
+7.6 +5.4 86 +7 +7 1004.3 995.2
21 16.06 штиль 0 10 км 3/3 600 м
[Sc Ci fib]
+4.3 +3.3 93 +3 +3 1003.9 994.7
00 17.06 Ю 1 10 км 9/9 600 м
[Sc]
+10.5 +5.0 69 +10 +11 1003.5 994.5
03 17.06 ЮЗ 2 10 км 10/8 600 м
[Sc Ac As]
+14.0 +1.4 42 +14 +14 1003.5 994.6 +2.7
06 17.06 ЮЗ 1 н/о н/о +14.9 +1.1 39 +16 +16 1002.0 993.9
09 17.06 Ю 1 10 км 8/8 600 м
[Cu Sc]
+16.7 +1.1 35 +18 +20 1002.4 993.5
12 17.06 Ю 2 н/о н/о +18.7 +0.1 29 +19 +19 1000.9 992.9
15 17.06 ЮВ 1 10 км 1/1 600 м
[Sc diur, vesp]
+15.9 +2.0 39 +17 +17 1001.6 992.7 +19.2
18 17.06 Ю 2 10 км 10/4 600 м
[Sc Ac trans Ci sp]
+11.8 +5.4 65 +11 +11 1001.4 992.4
21 17.06 ЮЗ 1 4000 м слаб. ливневой дождь 10/8 600 м
[Cb cap Ac und]
+11.2 +8.4 83 +11 +11 1001.0 992.0
00 18.06 Ю 2 4000 м слаб. ливневой дождь 10/10 600 м
[Cb cap]
+10.6 +9.2 91 +9 +9 1001.6 992.6
03 18.06 ЮЗ 2 10 км в посл. час ливневой дождь 9/6 600 м
[Cb cap Ac lent]
+11.2 +9.6 90 +10 +11 1002.7 993.7 +10.0 2
06 18.06 ЮЗ 2 н/о н/о +15.0 +6.7 58 +15 +15 1001.8 993.8
09 18.06 ЮВ 3 10 км 10/8 600 м
[Cb cap Ci fib]
+16.2 +7.3 56 +16 +17 1002.8 993.9
12 18.06 ЮВ 1 н/о н/о +17.1 +6.9 51 +18 +18 1001.3 993.3
15 18.06 штиль 0 4000 м слаб. ливневой дождь, в посл. час гроза 10/10 600 м
[Cb cap]
+11.1 +10.3 95 +10 +10 1002.5 993.5 +18.3 3
18 18.06 СВ 1 10 км {гроза, ливн. осадки} 10/10 600 м
[Cb cap]
+11.1 +10.2 94 +11 +11 999.3 990.3
21 18.06 СВ 1 4000 м слаб. ливневой дождь 10/10 600 м
[Cb cap]
+11.3 +10.6 95 +11 +11 996.8 987.8
00 19.06 ЮВ 1 10 км {ливн. осадки} 10/10 600 м
[Cb cap]
+12.1 +11.4 95 +12 +12 995.1 986.1
03 19.06 Ю 1 10 км в посл. час ливневой дождь 10/10 600 м
[Cb cap]
+13.0 +12.0 94 +13 +13 993.6 984.8 +11.1 6
06 19.06 З 3 н/о н/о +12.9 +11.5 91 +11 +11 992.5 984.5

 

Местоположение метеостанции Корлики (Ханты-Мансийский АО, Россия): широта 61.53 долгота 82.42 высота над уровнем моря 71 м.

В архиве по умолчанию представлена погода в Корликах за последнюю неделю. Архивные данные за месяц целиком и за предыдущие месяцы, начиная с января 2011 года, Вы можете получить, выбрав интересующий диапазон дат из раскрывающегося списка и нажав кнопку "Ввод!".


*Определитесь, кто Вы:
робот инопланетянин человек

Внимание! Время в таблицах - всемирное. Для получения местного времени необходимо прибавить поправку, которая равна 5 ч.

Смотрите также архив погоды в соседних городах и на ближайших метеорологических станциях:

Погода в Ларьяке (Ханты-Мансийский АО, Россия) (125 км)
Погода в Ванжиль-Кынаке (Томская область, Россия) (159 км)
Погода в Напасе (Томская область, Россия) (189 км)
Погода в Ваховске (Ханты-Мансийский АО, Россия) (206 км)
Погода в Келлоге (Красноярский край, Россия) (227 км)
Погода в Березовке (Томская область, Россия) (245 км)
Погода в Тольке (Ямало-Ненецкий АО, Россия) (273 км)
Погода в Александровском (Томская область, Россия) (274 км)
Погода в Прохоркино (Томская область, Россия) (276 км)
Погода в Радужном (Ханты-Мансийский АО, Россия) (276 км)

Пояснения к столбцам:

Ветер - указаны скорость ветра в м/с - средняя за 10 мин, порывы в срок и между сроками (в фигурных скобках) и направление, откуда дует ветер: С - северный, СВ - северо-восточный, В - восточный, ЮВ - юго-восточный, Ю - южный, ЮЗ - юго-западный, З - западный, СЗ - северо-западный.
Видимость - горизонтальная дальность видимости в метрах или километрах. При видимости от 1 до 10 км при отсутствии осадков обычно наблюдается дымка, при ухудшении видимости до 1 км и менее - туман. В сухую погоду видимость может ухудшаться дымом, пылью или мглою.
Явления - указаны атмосферные явления, наблюдавшиеся в срок или в последний час перед сроком; фигурными скобками обозначены явления, наблюдавшиеся между сроками (за 1-3 часа до срока); квадратными скобками обозначены град или гололедные отложения с указанием их диаметра в мм.
Облачность - указаны через наклонную черту общая и нижняя облачность в баллах и высота нижней границы облаков в метрах; квадратными скобками обозначены формы облаков: Ci - перистые, Cs - перисто-слоистые, Cc - перисто-кучевые, Ac - высококучевые, As - высокослоистые, Sc - слоисто-кучевые, Ns - слоисто-дождевые, Cu - кучевые, Cb - кучево-дождевые. Подробнее классификацию облаков см. в Атласе облаков (PDF).
T - Температура воздуха - температура, измеренная на высоте 2 м над землей.
Td - Температура точки росы - температура, при понижении до которой содержащийся в воздухе водяной пар достигнет насыщения.
f - Относительная влажность воздуха - влажноcть воздуха, измеренная на высоте 2 м над землей.
Te - Эффективная температура - температура, которую ощущает одетый по сезону человек в тени. Характеристика душности погоды. При расчете учитывается влияние влажности воздуха и скорости ветра на теплоощущения человека.
Tes - Эффективная температура на солнце - температура, которую ощущает человек, с поправкой на солнечный нагрев. Характеристика знойности погоды. Зависит от высоты солнца над горизонтом, облачности и скорости ветра. Ночью, в пасмурную погоду, а также при ветре 12 м/с и более поправка равна нулю.
P - Атмосферное давление - приведенное к уровню моря атмосферное давление.
Po - Атмосферное давление - измеренное на уровне метеостанции атмосферное давление.
Tmin - Минимальная температура - минимум температуры воздуха на высоте 2 м над землей.
Tmax - Максимальная температура - максимум температуры воздуха на высоте 2 м над землей.
R - Количество осадков - Количество выпавших осадков за период времени, мм. При наведении курсора мыши на число - период времени, за который выпало указанное количество осадков.
R24 - Количество осадков - Количество выпавших осадков за 24 часа, мм.
S - Снежный покров - Высота снежного покрова, см. При наведении курсора мыши на число - состояние снежного покрова и степень покрытия местности в баллах.